When you browse on this site, cookies collect data to enhance your experience and personalize the content and advertising you see.
Visit our Privacy Policy to learn more. By continuing to use the site, you agree to this use of cookies and data.
  • In Deutschland
  • Länderverzeichnis
  • Für 7 Tage
  • Wassertemperatur
  • Wetterkarte
  • Widgets
  • user-avatar
    Anmelden

    Stündliche Wetter Salta

    Heute, 18 Oktober, Freitag

    Zeit Temperatur Niederschläge Wind Luftdruck Luftfeuchtigkeit
    00:00 +12°C° 0 mm 0 m/S 651 mmHg 73%
    01:00 +12°C° 0 mm 0 m/S 651 mmHg 74%
    02:00 +12°C° 0 mm 0 m/S 650 mmHg 75%
    03:00 +11°C° 0 mm 0 m/S 651 mmHg 77%
    04:00 +11°C° 0 mm 0 m/S 651 mmHg 78%
    05:00 +11°C° 0 mm 0 m/S 651 mmHg 79%
    06:00 +13°C° 0 mm 1 m/S 652 mmHg 74%
    07:00 +14°C° 0 mm 1 m/S 653 mmHg 69%
    08:00 +16°C° 0 mm 1 m/S 653 mmHg 63%
    09:00 +18°C° 0 mm 1 m/S 653 mmHg 60%
    10:00 +18°C° 0 mm 2 m/S 653 mmHg 58%
    11:00 +19°C° 0 mm 2 m/S 653 mmHg 55%
    12:00 +19°C° 0 mm 2 m/S 653 mmHg 55%
    13:00 +19°C° 0 mm 2 m/S 652 mmHg 56%
    14:00 +19°C° 0 mm 2 m/S 651 mmHg 57%
    15:00 +18°C° 0 mm 2 m/S 651 mmHg 59%
    16:00 +18°C° 0 mm 2 m/S 651 mmHg 61%
    17:00 +18°C° 0 mm 2 m/S 650 mmHg 62%
    18:00 +18°C° 0 mm 1 m/S 651 mmHg 66%
    19:00 +16°C° 0 mm 1 m/S 652 mmHg 69%
    20:00 +15°C° 0 mm 1 m/S 652 mmHg 72%
    21:00 +15°C° 0 mm 1 m/S 653 mmHg 73%
    22:00 +15°C° 0 mm 1 m/S 653 mmHg 75%
    23:00 +14°C° 0 mm 0 m/S 653 mmHg 76%

    Morgen, 19 Oktober, Samstag

    Zeit Temperatur Niederschläge Wind Luftdruck Luftfeuchtigkeit
    00:00 +13°C° 0 mm 0 m/S 653 mmHg 77%
    01:00 +14°C° 0 mm 1 m/S 653 mmHg 77%
    02:00 +14°C° 0 mm 1 m/S 653 mmHg 78%
    03:00 +14°C° 0 mm 1 m/S 653 mmHg 79%
    04:00 +13°C° 0 mm 0 m/S 653 mmHg 80%
    05:00 +13°C° 0 mm 0 m/S 653 mmHg 81%
    06:00 +14°C° 0 mm 1 m/S 653 mmHg 78%
    07:00 +15°C° 0 mm 1 m/S 654 mmHg 75%
    08:00 +15°C° 0 mm 1 m/S 654 mmHg 72%
    09:00 +16°C° 0 mm 1 m/S 654 mmHg 69%
    10:00 +18°C° 0 mm 1 m/S 654 mmHg 65%
    11:00 +18°C° 0 mm 2 m/S 653 mmHg 62%
    12:00 +18°C° 0 mm 2 m/S 653 mmHg 60%
    13:00 +19°C° 0 mm 2 m/S 652 mmHg 58%
    14:00 +20°C° 0 mm 2 m/S 651 mmHg 55%
    15:00 +20°C° 0 mm 1 m/S 651 mmHg 57%
    16:00 +20°C° 0 mm 1 m/S 650 mmHg 58%
    17:00 +20°C° 0 mm 1 m/S 650 mmHg 59%
    18:00 +19°C° 0 mm 1 m/S 650 mmHg 64%
    19:00 +18°C° 0 mm 1 m/S 650 mmHg 69%
    20:00 +16°C° 0 mm 1 m/S 651 mmHg 74%
    21:00 +16°C° 0 mm 1 m/S 650 mmHg 76%
    22:00 +15°C° 0 mm 1 m/S 650 mmHg 79%
    23:00 +14°C° 0 mm 0 m/S 650 mmHg 81%

    übermorgen, 20 Oktober, Sonntag

    Zeit Temperatur Niederschläge Wind Luftdruck Luftfeuchtigkeit
    00:00 +13°C° 0 mm 0 m/S 650 mmHg 82%
    01:00 +14°C° 0 mm 1 m/S 649 mmHg 82%
    02:00 +14°C° 0 mm 1 m/S 649 mmHg 83%
    03:00 +13°C° 0 mm 0 m/S 649 mmHg 84%
    04:00 +13°C° 0 mm 0 m/S 649 mmHg 85%
    05:00 +12°C° 0 mm 0 m/S 649 mmHg 86%
    06:00 +15°C° 0 mm 1 m/S 649 mmHg 80%
    07:00 +16°C° 0 mm 1 m/S 650 mmHg 74%
    08:00 +18°C° 0 mm 1 m/S 650 mmHg 68%
    09:00 +20°C° 0 mm 1 m/S 650 mmHg 62%
    10:00 +20°C° 0 mm 2 m/S 650 mmHg 57%
    11:00 +23°C° 0 mm 2 m/S 650 mmHg 52%
    12:00 +22°C° 0 mm 3 m/S 650 mmHg 51%
    13:00 +24°C° 0 mm 3 m/S 649 mmHg 50%
    14:00 +25°C° 0 mm 3 m/S 649 mmHg 49%
    15:00 +22°C° 0 mm 3 m/S 649 mmHg 54%
    16:00 +21°C° 0 mm 3 m/S 649 mmHg 60%
    17:00 +20°C° 0 mm 3 m/S 648 mmHg 65%
    18:00 +19°C° 0 mm 3 m/S 649 mmHg 68%
    19:00 +18°C° 0 mm 2 m/S 650 mmHg 71%
    20:00 +19°C° 0 mm 1 m/S 651 mmHg 75%
    21:00 +19°C° 0 mm 1 m/S 651 mmHg 74%
    22:00 +18°C° 0 mm 1 m/S 652 mmHg 74%
    23:00 +18°C° 0 mm 1 m/S 652 mmHg 74%

    21 Oktober, Montag

    Zeit Temperatur Niederschläge Wind Luftdruck Luftfeuchtigkeit
    00:00 +18°C° 0 mm 1 m/S 652 mmHg 76%
    01:00 +16°C° 0 mm 1 m/S 651 mmHg 77%
    02:00 +16°C° 0 mm 1 m/S 651 mmHg 79%
    03:00 +16°C° 0 mm 1 m/S 651 mmHg 78%
    04:00 +16°C° 0 mm 1 m/S 652 mmHg 78%
    05:00 +16°C° 0 mm 1 m/S 652 mmHg 77%
    06:00 +18°C° 0 mm 1 m/S 652 mmHg 74%
    07:00 +19°C° 0 mm 1 m/S 653 mmHg 70%
    08:00 +19°C° 0 mm 1 m/S 653 mmHg 67%
    09:00 +21°C° 0 mm 1 m/S 653 mmHg 59%
    10:00 +23°C° 0 mm 2 m/S 653 mmHg 51%
    11:00 +24°C° 0 mm 3 m/S 653 mmHg 43%
    12:00 +24°C° 0 mm 3 m/S 653 mmHg 43%
    13:00 +24°C° 0 mm 3 m/S 652 mmHg 43%
    14:00 +24°C° 0 mm 3 m/S 651 mmHg 43%
    15:00 +22°C° 0 mm 3 m/S 651 mmHg 45%
    16:00 +22°C° 0 mm 3 m/S 650 mmHg 47%
    17:00 +21°C° 0 mm 2 m/S 650 mmHg 49%
    18:00 +20°C° 0 mm 2 m/S 650 mmHg 53%
    19:00 +20°C° 0 mm 1 m/S 651 mmHg 57%
    20:00 +20°C° 0 mm 1 m/S 651 mmHg 61%
    21:00 +19°C° 0 mm 1 m/S 651 mmHg 62%
    22:00 +19°C° 0 mm 1 m/S 652 mmHg 63%
    23:00 +18°C° 0 mm 1 m/S 652 mmHg 64%

    22 Oktober, Dienstag

    Zeit Temperatur Niederschläge Wind Luftdruck Luftfeuchtigkeit
    00:00 +16°C° 0 mm 1 m/S 651 mmHg 65%
    01:00 +16°C° 0 mm 1 m/S 651 mmHg 66%
    02:00 +15°C° 0 mm 1 m/S 651 mmHg 67%
    03:00 +14°C° 0 mm 1 m/S 651 mmHg 69%
    04:00 +14°C° 0 mm 1 m/S 651 mmHg 71%
    05:00 +12°C° 0 mm 0 m/S 651 mmHg 73%
    06:00 +14°C° 0 mm 1 m/S 651 mmHg 67%
    07:00 +16°C° 0 mm 1 m/S 652 mmHg 61%
    08:00 +17°C° 0 mm 2 m/S 652 mmHg 55%
    09:00 +19°C° 0 mm 2 m/S 652 mmHg 51%
    10:00 +20°C° 0 mm 3 m/S 652 mmHg 46%
    11:00 +21°C° 0 mm 3 m/S 652 mmHg 42%
    12:00 +22°C° 0 mm 3 m/S 652 mmHg 40%
    13:00 +24°C° 0 mm 3 m/S 651 mmHg 38%
    14:00 +25°C° 0 mm 4 m/S 650 mmHg 36%
    15:00 +25°C° 0 mm 3 m/S 650 mmHg 37%
    16:00 +24°C° 0 mm 3 m/S 650 mmHg 38%
    17:00 +24°C° 0 mm 3 m/S 649 mmHg 39%
    18:00 +21°C° 0 mm 2 m/S 650 mmHg 45%
    19:00 +20°C° 0 mm 2 m/S 650 mmHg 51%
    20:00 +19°C° 0 mm 1 m/S 650 mmHg 56%
    21:00 +19°C° 0 mm 1 m/S 650 mmHg 58%
    22:00 +18°C° 0 mm 1 m/S 651 mmHg 59%
    23:00 +16°C° 0 mm 0 m/S 651 mmHg 60%

    23 Oktober, Mittwoch

    Zeit Temperatur Niederschläge Wind Luftdruck Luftfeuchtigkeit
    00:00 +16°C° 0 mm 1 m/S 651 mmHg 62%
    01:00 +16°C° 0 mm 1 m/S 651 mmHg 63%
    02:00 +16°C° 0 mm 1 m/S 650 mmHg 64%
    03:00 +15°C° 0 mm 1 m/S 650 mmHg 66%
    04:00 +14°C° 0 mm 0 m/S 651 mmHg 68%
    05:00 +13°C° 0 mm 0 m/S 651 mmHg 70%
    06:00 +15°C° 0 mm 1 m/S 651 mmHg 64%
    07:00 +18°C° 0 mm 1 m/S 652 mmHg 59%
    08:00 +18°C° 0 mm 2 m/S 653 mmHg 53%
    09:00 +20°C° 0 mm 2 m/S 653 mmHg 48%
    10:00 +21°C° 0 mm 2 m/S 653 mmHg 44%
    11:00 +24°C° 0 mm 3 m/S 653 mmHg 39%
    12:00 +25°C° 0 mm 3 m/S 652 mmHg 37%
    13:00 +25°C° 0 mm 3 m/S 652 mmHg 35%
    14:00 +26°C° 0 mm 3 m/S 651 mmHg 33%
    15:00 +26°C° 0 mm 3 m/S 651 mmHg 34%
    16:00 +25°C° 0 mm 3 m/S 650 mmHg 35%
    17:00 +25°C° 0 mm 3 m/S 650 mmHg 37%
    18:00 +22°C° 0 mm 3 m/S 650 mmHg 41%
    19:00 +21°C° 0 mm 2 m/S 651 mmHg 46%
    20:00 +20°C° 0 mm 1 m/S 651 mmHg 51%
    21:00 +20°C° 0 mm 1 m/S 651 mmHg 53%
    22:00 +19°C° 0 mm 1 m/S 651 mmHg 56%
    23:00 +16°C° 0 mm 0 m/S 652 mmHg 58%
    Mehr zeigen